TimeEDT,TemperatureF,Dew PointF,Humidity,Sea Level PressureIn,VisibilityMPH,Wind Direction,Wind SpeedMPH,Gust SpeedMPH,PrecipitationIn,Events,Conditions,WindDirDegrees,DateUTC
12:53 AM,46.9,46.9,100,29.98,10.0,Calm,Calm,-,N/A,,Clear,0,2013-10-01 04:53:00
1:53 AM,46.9,46.0,97,29.98,10.0,Calm,Calm,-,0.01,,Clear,0,2013-10-01 05:53:00
2:53 AM,46.9,46.0,97,29.98,10.0,Calm,Calm,-,N/A,,Clear,0,2013-10-01 06:53:00
3:53 AM,46.0,45.0,96,29.97,10.0,Calm,Calm,-,N/A,,Clear,0,2013-10-01 07:53:00
4:53 AM,45.0,45.0,100,29.97,10.0,Calm,Calm,-,N/A,,Clear,0,2013-10-01 08:53:00
5:53 AM,46.9,46.0,97,29.98,10.0,Calm,Calm,-,N/A,,Mostly Cloudy,0,2013-10-01 09:53:00
6:53 AM,48.0,46.9,96,29.99,10.0,Calm,Calm,-,N/A,,Overcast,0,2013-10-01 10:53:00
7:53 AM,50.0,48.9,96,29.99,10.0,Calm,Calm,-,N/A,,Scattered Clouds,0,2013-10-01 11:53:00
8:53 AM,54.0,52.0,93,30.00,10.0,Calm,Calm,-,N/A,,Mostly Cloudy,0,2013-10-01 12:53:00
9:53 AM,59.0,53.1,81,29.99,10.0,SE,4.6,-,N/A,,Overcast,130,2013-10-01 13:53:00
10:53 AM,60.1,54.0,80,29.97,10.0,SE,8.1,-,N/A,,Mostly Cloudy,130,2013-10-01 14:53:00
11:53 AM,63.0,55.9,78,29.96,10.0,SE,5.8,-,N/A,,Mostly Cloudy,130,2013-10-01 15:53:00
12:53 PM,66.0,55.0,68,29.94,10.0,SE,10.4,-,N/A,,Partly Cloudy,130,2013-10-01 16:53:00
1:53 PM,69.1,53.1,57,29.91,10.0,SE,9.2,-,N/A,,Clear,130,2013-10-01 17:53:00
2:53 PM,71.1,54.0,55,29.90,10.0,SSE,4.6,-,N/A,,Mostly Cloudy,150,2013-10-01 18:53:00
3:53 PM,71.1,55.0,57,29.88,10.0,SSE,3.5,-,N/A,,Scattered Clouds,150,2013-10-01 19:53:00
4:53 PM,71.1,55.9,59,29.87,10.0,South,3.5,-,N/A,,Clear,180,2013-10-01 20:53:00
5:53 PM,66.0,57.9,75,29.87,10.0,Calm,Calm,-,N/A,,Clear,0,2013-10-01 21:53:00
6:53 PM,62.1,59.0,90,29.87,10.0,Calm,Calm,-,N/A,,Clear,0,2013-10-01 22:53:00
7:53 PM,57.9,57.0,97,29.88,9.0,Calm,Calm,-,N/A,,Clear,0,2013-10-01 23:53:00
8:53 PM,57.9,55.0,90,29.89,10.0,WSW,3.5,-,N/A,,Clear,240,2013-10-02 00:53:00
9:53 PM,54.0,53.1,97,29.89,9.0,Variable,3.5,-,N/A,,Clear,0,2013-10-02 01:53:00
10:53 PM,57.9,51.1,78,29.88,10.0,Calm,Calm,-,N/A,,Clear,0,2013-10-02 02:53:00
11:53 PM,53.1,51.1,93,29.86,10.0,Calm,Calm,-,N/A,,Clear,0,2013-10-02 03:53:00